Location: Castelbiague
(43.0361°N, 0.9246°E)
Time: 10:19:23
(UTC+00:00)

Cosmos 1464 Rocket - Pass Details

Date: 17 June 2021
Orbit: 953 x 1001 km, 82.9° (Epoch: 02 August)

Event Time Altitude Azimuth Distance (km) Brightness Sun altitude
Rises 22:51:03 0° 355° (N) 3,718 8.5 -21.8°
Reaches altitude 10° 22:53:38 10° 359° (N) 2,770 7.4 -22.0°
Maximum altitude 22:59:56 61° 79° (E) 1,124 4.2 -22.3°
Enters shadow 23:02:08 40° 141° (SE) 1,433 4.4 -22.4°
